Tracking 29892 objects as of 21-Nov-2024
HD Live streaming from Space Station
objects crossing your sky now

STARLINK-30761

Track STARLINK-30761 now!
10-day predictions
STARLINK-30761 is classified as:


NORAD ID: 58134
Int'l Code: 2023-162S
Perigee: 565.4 km
Apogee: 567.0 km
Inclination: 43.0 °
Period: 95.8 minutes
Semi major axis: 6937 km
RCS: Unknown
Launch date: October 22, 2023
Source: United States (US)
Launch site: AIR FORCE EASTERN TEST RANGE (AFETR)
Your satellite tracking list
Your tracking list is empty




NASA's NSSDC Master Catalog

Two Line Element Set (TLE):
1 58134U 23162S   24325.66814780  .00001566  00000-0  13093-3 0  9998
2 58134  43.0015 188.8829 0001209 265.3985  94.6719 15.02542633 60991
Source of the keplerian elements: AFSPC